EUTELSAT 7C

Last updated on Thu Jul 03 2025 00:02:48 GMT+0000 (Coordinated Universal Time)

1 44334U 19034B 25183.42266964 .00000055 00000+0 00000+0 0 9991 2 44334 0.0692 189.8453 0003287 256.7260 353.2835 1.00271132 3327
UTC large
Height (km)
Speed (km/s)
/
Latitude / Longitude
Inclination (degrees)
Orbital Period (minutes)
Azimuth
Elevation
Range (km)
Doppler Factor

Next 0 passes for location: London (51.5072 / 0.1276)

Sorry there are no passes over London.